RH
70 70 69 69 69 68 73 73 74 75 76 77 77 77 74 68 71 77 72 73 76 80 78 76 76 79 64 54 42 29 50 56 55 53 55 42 35 29 30 25 21 28 22 24 34 41 31
67 68 68 70 70 70 68 73 76 76 75 74 77 78 78 73 69 71 73 72 71 75 80 75 75 70 56 59 27 24 41 54 46 53 49 37 32 24 28 24 26 21 20 24 30 34 30
72 72 72 71 72 71 71 76 77 78 74 74 74 79 81 77 72 70 69 70 72 73 77 82 67 53 56 54 31 28 45 44 41 54 47 34 38 34 29 29 21 21 26 26 28 31 29
73 73 73 72 73 78 76 76 79 79 75 73 76 80 82 80 76 73 70 70 73 75 74 73 67 55 59 37 31 32 39 49 49 46 40 36 39 38 33 26 28 25 23 28 23 28 30
74 74 74 76 75 78 76 79 79 79 76 72 73 80 83 82 77 75 73 68 72 75 74 70 65 64 46 36 34 28 26 46 45 45 40 32 40 35 30 31 28 25 23 22 28 24 27
72 73 74 72 73 76 76 77 79 78 74 72 78 81 85 83 79 78 74 67 63 64 56 47 44 56 34 39 32 29 26 36 44 45 45 39 40 37 29 28 32 25 22 17 21 27 27
72 72 74 75 76 77 76 76 79 75 74 75 80 84 85 83 79 77 61 46 48 50 48 44 41 38 35 32 30 31 28 33 40 46 46 40 52 46 28 23 18 21 16 15 15 27 26
73 73 75 76 78 81 79 76 78 77 76 78 80 86 85 81 75 71 51 39 47 48 42 38 39 38 34 33 39 34 29 37 44 53 38 44 49 33 26 24 26 26 18 18 22 24 27
73 75 75 75 77 78 79 78 79 78 78 82 86 85 82 76 75 61 40 46 43 39 41 34 33 34 34 35 36 36 33 33 40 45 43 42 34 32 32 30 29 25 21 17 20 26 22
76 75 76 77 78 79 80 79 79 80 80 84 86 80 73 78 66 44 42 48 44 38 52 34 33 33 34 34 38 31 30 34 36 43 39 36 36 36 33 27 23 25 18 20 25 25 23
79 76 77 81 82 82 80 81 81 82 81 86 85 74 74 78 47 43 53 46 42 39 86 30 32 27 31 33 35 37 33 34 38 39 39 46 39 37 36 30 30 30 26 23 24 24 22
80 77 81 82 83 83 84 82 79 84 83 87 82 73 80 52 46 48 48 46 46 68 84 51 30 33 33 32 32 34 35 33 36 39 37 43 42 42 38 37 35 31 26 25 26 32 57
81 81 82 83 83 83 84 84 82 81 84 88 78 77 61 42 48 50 45 45 79 61 30 36 40 31 30 33 34 34 38 38 44 71 69 40 40 41 41 37 35 35 37 65 68 72 42
82 83 83 82 82 83 83 83 84 83 83 86 77 69 63 49 48 49 47 42 75 34 35 36 37 31 33 30 30 32 36 32 34 32 43 54 67 41 43 41 41 36 37 58 39 36 27
83 83 81 82 83 82 82 84 85 84 83 81 76 49 42 50 56 52 47 64 48 35 42 41 31 28 30 28 29 28 31 26 27 30 35 35 43 46 46 40 38 33 39 27 33 22 22
82 83 80 83 84 84 83 84 85 88 91 80 42 43 52 49 52 51 41 49 42 42 40 39 33 27 26 26 29 28 27 27 30 29 26 24 35 44 46 41 36 34 27 32 41 35 24
83 83 83 84 85 85 84 85 86 86 88 71 56 45 58 49 47 39 53 41 40 38 38 39 33 32 24 24 25 23 24 34 32 30 27 28 28 48 42 42 30 34 27 27 26 22 22
81 82 83 85 85 85 84 85 86 86 88 74 57 49 55 50 36 31 30 39 52 36 35 35 35 32 28 26 26 25 27 30 37 34 27 26 26 35 33 34 35 34 25 22 28 21 19
76 80 84 85 85 85 83 84 86 86 86 52 41 39 50 47 34 27 35 33 35 31 28 30 27 31 27 25 29 28 33 47 41 38 28 26 27 31 31 33 33 39 31 25 22 31 27
77 78 85 85 84 84 84 84 86 87 87 54 37 47 41 38 34 32 32 30 32 38 32 30 26 25 24 24 25 28 30 44 46 38 52 39 24 25 28 26 29 36 36 32 26 45 21
81 79 84 85 83 82 83 84 87 88 84 56 36 41 50 37 35 38 37 34 34 36 34 30 27 24 21 21 17 19 28 32 41 50 40 32 32 33 26 20 27 27 30 35 44 32 25
81 82 83 84 84 81 82 83 86 90 85 47 36 31 43 33 43 42 47 35 35 33 35 37 38 32 25 28 24 30 22 23 19 38 33 31 32 28 27 22 24 27 22 24 31 27 27
75 78 84 84 85 82 81 83 87 90 83 40 50 49 38 44 36 34 26 30 33 37 35 33 35 38 40 37 34 27 25 23 22 24 28 28 27 29 25 40 40 44 35 26 20 23 23
76 77 82 85 87 85 81 81 85 86 85 55 47 43 34 22 33 27 35 38 37 38 37 35 38 39 42 40 42 42 40 41 39 31 30 28 26 31 38 41 53 38 41 39 29 24 24
75 74 76 82 88 89 84 80 82 80 86 59 60 50 36 28 25 25 32 36 37 40 46 42 39 38 40 45 47 45 47 55 53 49 44 32 31 42 51 43 32 27 43 41 39 36 33
75 73 74 76 82 88 87 83 80 80 81 68 63 62 49 35 22 24 32 34 34 35 40 47 50 44 47 46 48 48 38 34 45 63 52 46 41 43 50 56 47 38 38 35 38 42 42
77 76 77 78 79 83 88 86 82 82 78 74 67 70 57 46 25 31 33 29 34 36 37 48 53 56 51 49 52 47 41 38 40 47 63 59 53 55 50 54 41 38 38 40 52 46 47
82 81 81 80 80 81 86 89 86 84 82 76 62 72 64 45 34 42 41 41 50 47 31 49 50 56 58 58 48 42 46 39 47 39 50 48 52 55 49 54 67 40 45 47 46 48 48
90 90 85 83 83 83 84 87 88 86 84 83 69 74 70 71 45 51 44 43 46 47 43 44 36 44 40 45 44 44 51 49 45 46 51 57 40 40 41 42 44 40 44 48 44 48 50
Wind_Speed
11 12 12 12 12 12 12 11 10 10 9 8 7 7 6 5 7 8 11 14 15 15 10 5 1 5 6 6 5 5 7 7 10 10 11 9 10 13 14 15 14 12 14 5 2 3 3
11 11 11 12 12 12 12 12 11 9 10 9 8 7 8 5 3 5 7 10 13 12 12 10 4 2 6 7 6 7 9 4 12 11 10 7 7 6 10 10 13 13 4 8 5 6 4
11 12 12 12 13 13 13 12 12 10 9 9 9 8 9 7 5 6 5 6 8 11 11 11 6 4 6 4 4 7 2 2 8 6 7 4 4 7 3 6 11 5 10 6 7 7 5
11 12 12 13 13 13 13 14 11 10 8 8 8 9 9 9 8 6 6 6 6 6 7 7 7 4 4 3 7 5 3 3 3 5 4 2 4 7 7 4 6 9 14 11 13 10 4
12 12 13 13 13 13 15 14 13 10 8 7 7 9 9 9 9 7 6 5 7 7 6 7 4 2 2 1 3 4 3 3 4 3 2 3 4 6 4 10 10 13 13 17 10 12 6
12 13 13 14 14 15 15 15 14 11 8 6 6 7 9 9 9 7 6 6 1 6 7 6 5 6 2 2 2 1 1 4 3 4 4 6 6 8 9 11 13 17 18 20 12 10 9
10 11 13 14 14 15 16 15 14 11 8 6 6 6 7 9 8 7 7 4 5 5 5 4 6 3 2 3 2 2 2 3 2 4 7 8 6 12 13 13 12 10 19 15 14 4 9
9 11 12 14 15 15 15 16 14 12 8 7 7 6 7 6 7 5 6 4 4 4 1 1 4 2 1 4 2 4 3 2 5 7 6 6 9 13 3 7 9 9 16 13 5 3 8
10 11 12 13 14 15 15 17 16 13 10 9 8 6 6 4 4 4 3 3 2 2 5 3 1 2 2 3 3 4 4 1 4 5 9 7 2 1 4 10 12 8 13 15 6 8 5
10 11 13 14 14 15 15 16 17 15 11 10 8 6 4 4 2 2 1 1 3 3 5 4 3 3 2 3 2 1 2 4 5 6 4 6 3 4 8 11 12 12 10 10 7 11 10
10 11 12 13 15 15 16 15 16 15 12 10 6 5 0 4 2 2 4 5 4 4 2 3 2 2 1 4 4 5 0 4 3 4 4 0 2 5 8 1 1 3 2 5 6 11 3
9 11 13 14 15 16 16 17 16 14 12 11 4 3 4 3 2 2 2 4 5 3 3 2 1 1 3 3 2 3 3 2 2 2 1 2 1 2 6 1 0 2 4 5 3 3 4
10 11 12 14 16 17 17 17 18 17 12 8 3 2 3 2 4 1 1 3 3 2 2 3 2 1 2 3 4 4 3 6 3 0 3 3 2 2 2 5 4 1 9 3 4 4 4
9 11 13 14 15 16 17 17 17 17 14 7 3 3 3 3 2 3 4 4 3 3 2 1 3 5 4 4 2 4 4 6 5 5 4 3 3 2 2 4 3 6 5 4 5 7 8
9 11 12 13 14 15 16 17 18 17 12 3 3 2 2 3 2 3 6 1 1 2 3 6 3 5 3 4 3 5 6 4 1 5 4 3 4 3 2 2 3 4 7 4 5 0 4
8 9 12 14 15 16 16 17 18 18 13 2 2 2 2 1 2 3 4 2 1 1 2 2 5 1 4 2 4 4 7 2 2 2 2 2 3 0 3 3 3 3 6 5 4 4 5
6 8 10 12 14 15 16 16 17 17 15 2 4 3 4 1 3 5 2 2 1 2 3 3 3 5 4 4 5 3 2 3 1 2 3 5 4 4 3 7 4 5 4 5 4 4 5
5 7 8 10 12 14 15 15 15 17 15 4 3 2 2 2 3 0 2 3 4 1 2 3 5 4 4 4 4 4 3 3 1 1 3 2 5 3 0 5 1 4 5 6 4 5 1
6 6 7 9 10 12 13 13 15 15 12 3 3 2 2 3 3 3 2 1 2 2 2 1 2 2 3 3 4 3 1 2 0 3 3 1 4 2 2 2 3 7 10 6 2 3 6
7 6 7 7 9 10 12 14 14 15 12 3 3 2 2 2 1 4 2 1 1 2 2 2 3 2 4 4 2 3 3 1 1 1 4 4 4 7 4 3 1 5 9 12 10 5 9
7 7 5 6 8 10 12 13 14 15 11 4 1 2 2 2 2 2 2 2 2 1 3 3 4 4 2 4 4 3 2 2 3 2 2 3 5 3 9 8 5 7 8 13 16 17 8
9 8 7 6 7 8 11 12 13 14 11 3 3 3 3 1 2 4 2 3 3 2 3 3 4 2 5 4 2 6 4 2 2 3 3 4 3 2 5 2 7 12 13 14 17 17 20
10 9 8 7 7 7 9 11 13 15 11 2 1 1 3 4 3 4 2 2 4 1 5 4 3 4 6 7 4 6 5 5 5 4 6 4 4 3 4 1 7 12 17 18 11 8 12
11 10 10 9 8 7 7 8 10 11 10 3 2 2 3 4 5 5 2 4 6 8 5 2 5 4 2 1 2 4 6 6 7 7 5 5 5 3 5 3 6 3 3 4 12 9 12
12 11 11 11 11 9 7 7 7 7 7 3 1 3 3 5 4 8 9 7 5 5 6 7 6 2 0 2 4 5 4 4 4 3 7 6 6 4 4 7 13 14 3 3 6 3 8
13 13 14 12 12 11 9 7 7 6 5 3 2 1 3 5 6 7 4 5 7 7 4 4 2 1 2 2 2 4 4 4 4 3 1 5 6 6 3 5 6 4 4 1 2 6 7
16 16 16 15 13 13 11 10 8 7 5 3 3 4 3 4 6 5 6 6 4 3 4 2 4 4 3 3 4 5 6 2 5 4 6 5 6 13 11 7 7 7 7 3 3 2 6
16 16 16 17 15 14 14 13 11 10 7 3 2 4 3 4 6 6 4 6 3 4 8 5 3 4 4 6 4 4 5 3 4 1 4 7 6 6 6 6 11 9 4 5 5 5 7
11 15 18 18 17 16 17 16 15 13 11 7 3 2 3 5 5 2 9 10 7 3 3 5 5 3 4 5 4 3 4 3 6 7 1 5 7 2 7 3 3 7 2 3 2 6 4
Wind_Direction
19 23 15 14 8 5 360 352 341 331 326 320 316 317 320 340 11 15 19 15 11 19 22 19 134 148 207 219 269 30 324 262 207 216 224 224 221 211 215 205 196 221 206 208 156 185 212
18 19 16 13 8 3 357 354 346 332 318 314 316 310 305 310 339 3 15 13 16 17 16 22 80 329 266 249 23 359 338 178 187 206 216 226 242 232 258 231 200 196 219 200 165 188 199
22 16 13 11 9 1 356 354 344 336 319 316 316 312 303 303 298 293 321 349 360 13 15 12 357 305 260 357 350 346 350 166 190 224 216 226 303 232 311 220 215 274 186 193 180 185 178
21 16 10 11 5 360 360 350 347 342 330 311 315 315 307 305 299 296 303 298 311 331 343 332 321 294 291 16 329 276 109 159 192 237 313 290 264 283 256 40 205 211 224 192 178 172 165
14 11 10 6 3 359 355 355 348 351 340 320 311 313 310 308 305 298 301 297 290 286 291 286 257 246 88 310 271 8 317 209 174 218 236 261 248 246 201 216 185 215 200 208 155 196 152
14 9 7 0 360 359 358 355 354 353 346 327 316 310 307 303 304 298 288 278 252 272 205 221 259 245 158 67 18 44 71 174 213 179 195 212 225 221 211 207 200 199 229 202 184 187 214
24 10 2 357 354 358 357 358 355 353 347 343 331 310 300 298 301 296 274 226 210 172 217 0 5 20 112 104 186 163 146 180 184 223 207 202 216 215 206 214 230 287 213 222 193 139 219
21 13 4 358 356 357 356 355 357 357 351 344 325 311 295 293 299 297 276 297 42 7 16 179 294 282 287 325 176 148 196 235 207 221 210 180 234 228 317 237 248 281 220 212 101 105 228
11 9 2 358 358 1 358 358 356 358 354 339 329 314 297 286 281 258 303 61 327 281 275 123 42 345 36 246 7 141 216 141 244 223 214 214 162 97 256 213 218 238 233 215 222 170 234
4 7 1 356 359 360 1 359 359 355 348 339 333 319 303 160 199 11 237 48 269 287 274 67 136 115 198 281 144 356 270 304 202 230 226 269 67 233 235 224 209 220 236 299 160 188 215
2 4 360 357 357 1 1 3 360 356 343 335 332 330 227 256 48 260 10 319 289 235 355 16 78 60 191 282 118 153 354 237 251 164 238 121 250 220 231 138 237 11 291 204 206 217 228
1 359 358 358 359 1 2 0 0 358 351 334 328 329 169 242 243 63 3 324 265 235 35 34 317 195 211 190 189 137 201 197 347 244 280 345 122 328 8 38 167 107 177 152 174 249 237
354 2 3 0 359 1 1 359 358 358 354 346 329 126 273 316 8 357 209 220 267 349 159 7 348 310 293 155 177 220 193 193 243 81 251 180 136 103 286 201 124 248 191 153 196 203 230
351 3 3 6 1 1 358 358 358 358 351 340 163 184 53 21 22 299 249 217 30 16 357 58 295 288 255 178 190 217 208 205 207 257 300 201 211 200 5 345 50 204 254 283 204 200 196
354 359 359 359 359 0 360 356 358 357 349 338 180 172 168 62 327 271 264 30 51 45 341 322 262 269 219 197 274 222 234 190 144 205 285 244 167 144 42 350 323 132 221 4 304 244 230
350 358 356 355 357 355 359 359 358 359 358 225 260 236 94 35 286 246 268 13 25 315 296 255 295 289 304 174 265 207 178 80 175 245 231 338 249 52 110 214 161 258 337 236 208 244 224
353 353 357 356 356 354 355 358 356 1 357 349 260 260 86 242 243 227 358 28 203 171 288 272 315 293 293 311 277 275 346 116 214 168 262 292 265 116 199 199 215 182 229 236 290 290 302
343 345 353 358 354 353 353 354 354 358 351 267 297 268 70 240 245 331 20 6 354 295 203 278 297 287 296 323 284 287 313 6 62 296 248 62 314 249 67 81 23 279 280 280 260 215 277
311 331 339 354 355 349 347 348 347 353 357 313 288 337 140 258 342 25 123 138 280 286 295 286 278 296 327 290 290 288 304 97 11 283 329 88 220 243 172 182 193 231 206 237 237 324 255
282 304 328 343 345 345 345 342 344 347 343 259 284 285 154 198 323 321 320 138 286 187 266 275 307 275 289 268 241 309 293 129 142 255 24 322 282 262 301 16 58 202 208 214 212 217 240
264 280 300 319 332 335 341 342 343 343 343 270 297 79 27 322 121 329 295 325 297 237 216 233 204 246 310 300 288 272 300 228 194 157 185 261 279 314 294 285 239 259 226 205 211 226 233
247 258 274 292 307 326 332 337 342 345 346 257 307 290 170 285 287 271 171 204 263 221 219 187 248 226 214 240 262 300 324 257 335 175 227 184 270 307 272 241 251 262 249 236 228 238 247
251 248 247 261 279 303 323 336 342 348 339 299 96 119 282 127 204 247 220 210 236 227 201 261 262 271 248 284 297 282 259 270 293 287 215 232 254 242 263 256 280 263 243 229 227 230 243
243 251 243 248 255 274 299 323 337 351 357 313 8 279 251 268 248 244 248 241 236 227 276 244 221 245 76 83 287 258 252 251 244 219 267 255 237 279 289 295 248 66 74 343 232 231 228
239 251 253 243 242 247 266 294 314 339 353 303 341 271 257 256 251 264 252 249 265 233 237 249 229 14 21 264 280 284 200 228 208 250 235 226 252 261 251 241 294 277 186 186 195 230 211
246 239 251 249 241 237 239 251 281 300 326 284 266 276 277 284 232 246 219 228 258 234 215 206 140 157 225 253 243 262 274 344 190 191 234 229 254 250 163 258 263 65 128 141 182 244 164
241 243 244 246 246 236 230 231 244 263 278 283 288 238 234 250 259 192 209 236 194 271 279 125 159 169 234 216 242 243 252 347 253 231 172 177 209 227 239 254 281 110 138 172 215 73 143
253 250 249 247 243 237 224 221 222 228 229 234 304 208 270 253 258 210 224 207 174 223 250 117 172 207 184 216 238 238 247 192 273 271 203 196 195 202 211 234 255 141 127 225 85 111 141
307 271 255 250 246 243 235 216 215 217 208 200 256 193 219 246 302 312 264 266 246 291 264 188 288 183 220 226 208 280 221 208 247 260 203 241 231 274 224 240 92 189 309 82 141 151 156